sat.trackr.live / text

‹ back to catalog

STARLINK-36194

NORAD 67130 · 2025-299AE

PAYLOAD ACTIVE UNKNOWN

§ Identity

Operator
Country
US
Launch date
2025-12-15
Launch site
AFETR
Launch vehicle
Mass (kg)
RCS (m²)

Purposes: comms

External: N2YO · Heavens-Above · Gunter

§ Orbital elements

Epoch: 2026-09-19T01:56:49.697664Z

Period
94.27 min
Inclination
43.0031°
Eccentricity
0.0001109
Mean motion
15.27593564 rev/d
Perigee alt
482.2 km
Apogee alt
483.8 km
Semi-major
6,861.1 km
B*
5.4095e-4
RAAN
156.7580°
Arg perigee
261.0879°
Mean anomaly
98.9847°
Rev number
4,269

§ Raw data

STARLINK-361941 67130U 25299AE  26262.08113076  .00014659  00000+0  54095-3 0  99982 67130  43.0031 156.7580 0001109 261.0879  98.9847 15.27593564 42699

JSON: /api/v1/satellites/67130 · /tle

For live sub-satellite position, see the globe view (requires WebGL).

§ Visibility from observer

Set your observer location to see the next 7 days of passes ≥ 10°. The values pass through the URL so the page stays shareable.

No JS? Fill the form by hand. The geolocation button needs JavaScript.